LEMUR-2-PETERG

Last updated on Wed Feb 14 2018 16:20:51 GMT+0000 (Coordinated Universal Time)

1 42841U 17042S 18044.95952001 .00000657 00000-0 70767-4 0 9990 2 42841 97.6072 312.1294 0011352 243.8193 116.1859 14.91612114 31999
UTC large
Height (km)
Speed (km/s)
/
Latitude / Longitude
Inclination (degrees)
Orbital Period (minutes)
Azimuth
Elevation
Range (km)
Doppler Factor

Next 0 passes for location: London (51.5072 / 0.1276)

Sorry there are no passes over London.